Weather History for KSLE - May, 2013

Change the Weather History Date:

Wednesday, May 29, 2013

  Actual Average Record
Temperature  
Mean Temperature 58 °F 59 °F  
Max Temperature 65 °F 70 °F 90 °F (1995)
Min Temperature 51 °F 47 °F 34 °F (1979)
Degree Days  
Heating Degree Days 7 7  
Month to date heating degree days 194 266  
Since 1 July heating degree days 4183 4509  
Cooling Degree Days 0 0  
Month to date cooling degree days 10 0  
Year to date cooling degree days 10 0  
Growing Degree Days 7 (Base 50)    
Moisture  
Dew Point 50 °F    
Average Humidity 80    
Maximum Humidity 100    
Minimum Humidity 60    
Precipitation  
Precipitation 0.19 in 0.07 in 0.59 in (1998)
Month to date precipitation 2.92 2.07  
Year to date precipitation 10.57 19.39  
Snow  
Snow 0.00 in - - ()
Month to date snowfall 0.0  
Snow Depth 0.00 in    
Sea Level Pressure  
Sea Level Pressure 29.81 in    
Wind  
Wind Speed 13 mph (SSW)    
Max Wind Speed 24 mph    
Max Gust Speed 30 mph    
Visibility 9 miles    
Events Rain    
T = Trace of Precipitation, MM = Missing Value Source: NWS Daily Summary

Daily Weather History Graph

Daily Weather History Graph

Search for Another Location

Airport or City:

Trip Planner

Search our weather history database for the weather conditions in past years. The results will help you decide how hot, cold, wet, or windy it might be!

Date:

Astronomy

May. 29, 2013 Rise Set
Actual Time 5:30 AM PDT 8:48 PM PDT
Civil Twilight 4:54 AM PDT 9:25 PM PDT
Nautical Twilight 4:07 AM PDT 10:12 PM PDT
Astronomical Twilight 3:09 AM PDT 11:10 PM PDT
Moon 12:08 AM PDT (5/29) 10:43 AM PDT (5/29)
Length of Visible Light 16h 30m
Length of Day
15h 18m
Waning Gibbous, 72% of the Moon is Illuminated
May 29
Waning Gibbous
May 31
Last Quarter
Jun 8
New
Jun 16
First Quarter
Jun 23
Full

Hourly Weather History & Observations

Time (PDT) Temp. Dew Point Humidity Pressure Visibility Wind Dir Wind Speed Gust Speed Precip Events Conditions
12:56 AM 52.0 °F 51.1 °F 97% 29.73 in 10.0 mi East 3.5 mph - 0.05 in Rain Light Rain
1:27 AM 51.8 °F 50.0 °F 94% 29.72 in 6.0 mi ESE 4.6 mph - 0.02 in Rain Light Rain
1:35 AM 51.8 °F 50.0 °F 94% 29.72 in 7.0 mi SE 5.8 mph - 0.03 in Rain Light Rain
1:56 AM 51.1 °F 50.0 °F 96% 29.70 in 8.0 mi ESE 5.8 mph - 0.04 in Rain Light Rain
2:21 AM 51.8 °F 50.0 °F 94% 29.69 in 10.0 mi SE 4.6 mph - 0.02 in Rain Light Rain
2:31 AM 51.8 °F 50.0 °F 94% 29.69 in 6.0 mi SE 5.8 mph - 0.02 in Rain Light Rain
2:56 AM 51.1 °F 51.1 °F 100% 29.67 in 8.0 mi SE 6.9 mph - 0.04 in Rain Light Rain
3:56 AM 52.0 °F 51.1 °F 97% 29.65 in 10.0 mi SSE 15.0 mph - 0.02 in   Overcast
4:07 AM 53.6 °F 51.8 °F 94% 29.65 in 10.0 mi South 18.4 mph 25.3 mph 0.00 in Rain Light Rain
4:56 AM 54.0 °F 52.0 °F 93% 29.65 in 9.0 mi SSE 16.1 mph - 0.03 in Rain Light Rain
5:38 AM 55.4 °F 51.8 °F 88% 29.65 in 10.0 mi South 17.3 mph 28.8 mph 0.01 in Rain Light Rain
5:56 AM 55.0 °F 52.0 °F 89% 29.65 in 10.0 mi South 17.3 mph 29.9 mph 0.01 in Rain Light Rain
6:23 AM 53.6 °F 53.6 °F 100% 29.66 in 3.0 mi South 17.3 mph 26.5 mph 0.01 in Rain Light Rain
6:31 AM 53.6 °F 53.6 °F 100% 29.67 in 2.0 mi South 15.0 mph 26.5 mph 0.03 in   Overcast
6:36 AM 53.6 °F 53.6 °F 100% 29.67 in 1.8 mi SSW 10.4 mph 20.7 mph 0.04 in Rain Light Rain
6:40 AM 53.6 °F 53.6 °F 100% 29.67 in 2.0 mi SSW 11.5 mph 20.7 mph 0.04 in Rain Light Rain
6:46 AM 53.6 °F 53.6 °F 100% 29.68 in 3.0 mi SSW 16.1 mph 20.7 mph 0.05 in Rain Light Rain
6:51 AM 55.4 °F 53.6 °F 94% 29.68 in 6.0 mi SSW 15.0 mph - 0.05 in Rain Light Rain
6:56 AM 55.0 °F 53.1 °F 93% 29.68 in 10.0 mi SSW 15.0 mph 24.2 mph 0.05 in   Mostly Cloudy
7:08 AM 55.4 °F 51.8 °F 88% 29.69 in 10.0 mi SSW 20.7 mph 25.3 mph N/A   Mostly Cloudy
7:56 AM 55.9 °F 51.1 °F 84% 29.75 in 10.0 mi SSW 18.4 mph 27.6 mph N/A   Mostly Cloudy
8:56 AM 55.9 °F 50.0 °F 80% 29.81 in 10.0 mi South 13.8 mph 18.4 mph N/A   Mostly Cloudy
9:41 AM 53.6 °F 51.8 °F 94% 29.84 in 10.0 mi South 12.7 mph - N/A   Overcast
9:56 AM 55.9 °F 51.1 °F 84% 29.84 in 10.0 mi South 13.8 mph 21.9 mph N/A   Overcast
10:56 AM 57.9 °F 51.1 °F 78% 29.87 in 10.0 mi SSW 15.0 mph 23.0 mph N/A   Overcast
11:56 AM 60.1 °F 50.0 °F 69% 29.90 in 10.0 mi SW 19.6 mph 26.5 mph 0.00 in   Mostly Cloudy
12:52 PM 62.6 °F 48.2 °F 59% 29.91 in 10.0 mi WSW 18.4 mph 26.5 mph N/A   Mostly Cloudy
12:56 PM 62.1 °F 48.9 °F 62% 29.91 in 10.0 mi SW 18.4 mph 26.5 mph N/A   Mostly Cloudy
1:56 PM 63.0 °F 48.9 °F 60% 29.92 in 10.0 mi WSW 10.4 mph 24.2 mph N/A   Mostly Cloudy
2:56 PM 63.0 °F 48.0 °F 58% 29.93 in 10.0 mi WSW 13.8 mph 24.2 mph N/A   Mostly Cloudy
3:56 PM 63.0 °F 48.0 °F 58% 29.94 in 10.0 mi SW 11.5 mph - N/A   Mostly Cloudy
4:56 PM 63.0 °F 48.0 °F 58% 29.94 in 10.0 mi West 16.1 mph 24.2 mph N/A   Mostly Cloudy
5:56 PM 59.0 °F 48.9 °F 69% 29.96 in 10.0 mi WSW 11.5 mph - N/A   Mostly Cloudy
6:56 PM 57.0 °F 48.9 °F 74% 29.98 in 10.0 mi WSW 12.7 mph 21.9 mph 0.00 in Rain Light Rain
7:56 PM 55.9 °F 45.0 °F 67% 30.00 in 10.0 mi West 10.4 mph - 0.00 in   Mostly Cloudy
8:56 PM 53.1 °F 46.0 °F 77% 30.02 in 10.0 mi SSW 8.1 mph - N/A   Mostly Cloudy
9:56 PM 51.1 °F 46.0 °F 83% 30.05 in 10.0 mi South 4.6 mph - N/A   Partly Cloudy
10:56 PM 50.0 °F 45.0 °F 83% 30.06 in 10.0 mi SSW 6.9 mph - N/A   Scattered Clouds
11:56 PM 50.0 °F 44.1 °F 80% 30.09 in 10.0 mi SW 3.5 mph - N/A   Scattered Clouds